AO-07 1 07530U 74089B 16245.20319992 -.00000033 00000-0 68137-4 0 9992 2 07530 101.5830 214.1316 0012004 161.0820 316.6452 12.53622873912646 FO-29 1 24278U 96046B 16245.33456228 -.00000047 00000-0 -10908-4 0 9994 2 24278 98.5828 160.5798 0350662 5.6492 354.8447 13.53070537989813 RS-22 1 27939U 03042A 16245.85455789 .00000230 00000-0 49851-4 0 9994 2 27939 97.8998 34.6204 0014266 64.6585 95.2975 14.66443305691058 AO-73 1 39444U 13066AE 16245.77221822 .00000655 00000-0 88308-4 0 9996 2 39444 97.6739 296.0410 0060075 129.7143 230.9388 14.81147802148916 EO-79 1 40025U 14033R 16245.71591368 .00000586 00000-0 69788-4 0 9991 2 40025 97.9213 151.1326 0012802 166.4496 193.7066 14.88094623119583 XW-2A 1 40903U 15049E 16245.81493409 .00004400 00000-0 12390-3 0 9997 2 40903 97.4435 261.9104 0014579 215.2368 144.7914 15.36906032 53324 XW-2C 1 40906U 15049H 16245.78727535 .00001582 00000-0 91007-4 0 9997 2 40906 97.4548 251.2275 0016943 128.9327 231.3417 15.13789484 52599 LILACSAT-2 1 40908U 15049K 16245.78716358 .00000933 00000-0 56860-4 0 9997 2 40908 97.4614 251.0659 0017818 123.8502 236.4428 15.12666101 52564 UO-11 1 14781U 84021B 16245.15449245 .00000179 00000-0 28428-4 0 9993 2 14781 97.7421 294.8027 0009939 70.2310 289.9975 14.82783890747511 LO-19 1 20442U 90005G 16245.32237313 .00000023 00000-0 24510-4 0 9999 2 20442 98.5457 179.2150 0010638 283.1851 76.8146 14.32827331390258 AO-27 1 22825U 93061C 16245.84392227 .00000014 00000-0 22834-4 0 9991 2 22825 98.7669 202.5943 0009544 93.0644 267.1630 14.29965986196199 IO-26 1 22826U 93061D 16245.31130066 .00000004 00000-0 18807-4 0 9999 2 22826 98.7612 202.1733 0010087 86.4291 273.8044 14.30291521196281 GO-32 1 25397U 98043D 16245.82099088 -.00000010 00000-0 14622-4 0 9993 2 25397 98.5720 188.7943 0002347 103.4856 256.6584 14.23601142942760 NO-44 1 26931U 01043C 16245.13160411 .00000021 00000-0 39719-4 0 9990 2 26931 67.0507 116.9780 0005568 262.8985 97.1483 14.30421575779001 SO-50 1 27607U 02058C 16245.43100221 .00000321 00000-0 45976-4 0 9999 2 27607 64.5567 287.8937 0059762 200.0060 159.9199 14.75200424736512 CO-55 1 27844U 03031E 16245.02495299 .00000084 00000-0 57640-4 0 9998 2 27844 98.6933 252.2247 0010897 102.2976 257.9422 14.21972220683223 CO-57 1 27848U 03031J 16245.01762372 .00000068 00000-0 50877-4 0 9997 2 27848 98.7030 252.3460 0010752 110.0313 250.2022 14.21596073683114 CO-65 1 32785U 08021C 16245.17676475 .00000435 00000-0 53501-4 0 9997 2 32785 97.5975 276.2111 0014367 50.2742 309.9739 14.87640471451923 PRISM 1 33493U 09002B 16245.83920838 .00000823 00000-0 80835-4 0 9993 2 33493 98.2062 109.5087 0014685 317.6995 42.3102 14.95087351412681 TISAT-1 1 36799U 10035E 16245.74971261 .00000965 00000-0 10624-3 0 9994 2 36799 98.0366 357.2407 0012426 188.2259 171.8756 14.89936502332826 ALMASAT-1 1 38078U 12006B 16244.89837604 .00044538 38802-5 57047-3 0 9993 2 38078 069.4449 182.5928 0369800 352.4124 007.1519 15.07034617240975 DUCHIFAT-1 1 40021U 14033M 16245.80543182 .00000897 00000-0 10023-3 0 9990 2 40021 97.9247 152.4888 0013361 164.2027 195.9609 14.89425965119664 NANOSATCBR1 1 40024U 14033Q 16245.68267765 .00000806 00000-0 92041-4 0 9990 2 40024 97.9219 151.6679 0012620 164.5059 195.6546 14.88819359119615 DTUSAT-2 1 40030U 14033W 16245.24539022 .00000561 00000-0 67609-4 0 9997 2 40030 97.9189 150.0492 0012357 161.7412 198.4250 14.87727237119483 ANTELSAT 1 40034U 14033AA 16245.76519503 .00000273 00000-0 48658-4 0 9993 2 40034 97.8928 132.0319 0060069 138.7036 221.8737 14.73449977118458 MET-2/21 1 22782U 93055A 16245.16175100 .00000036 00000-0 19015-4 0 9991 2 22782 82.5460 252.9370 0022998 158.4005 270.4171 13.83790311161724 NOAA-15 1 25338U 98030A 16245.22608131 .00000063 00000-0 45620-4 0 9992 2 25338 98.7848 249.5343 0010010 331.2303 28.8323 14.25750154951829 NOAA-18 1 28654U 05018A 16245.22180969 .00000039 00000-0 46437-4 0 9994 2 28654 99.1980 254.1321 0014688 158.2665 201.9132 14.12301756581463 NOAA-19 1 33591U 09005A 16245.32885438 .00000116 00000-0 87848-4 0 9991 2 33591 99.0475 202.7546 0014274 9.2071 350.9360 14.12101983389882 HUBBLE 1 20580U 90037B 16245.85536819 .00000935 00000-0 47297-4 0 9997 2 20580 28.4697 112.3820 0002655 314.8013 144.9263 15.08472693246699 ISS 1 25544U 98067A 16245.90852106 .00003395 00000-0 58001-4 0 9997 2 25544 51.6457 35.2106 0002625 276.1878 219.5058 15.54368876 16922 CO-58 1 28895U 05043F 16244.93286776 .00000239 00000-0 54928-4 0 9995 2 28895 097.8383 055.0856 0016455 343.8433 016.2243 14.63243080577952 AAUSAT2 1 32788U 08021F 16245.16328733 .00000751 00000-0 76727-4 0 9996 2 32788 97.5972 285.5055 0012620 24.0376 336.1431 14.93358796452537 DO-64 1 32789U 08021G 16245.20412923 .00002255 00000-0 16921-3 0 9997 2 32789 97.5989 303.0887 0013268 11.1989 348.9529 15.03578867453424 CO-66 1 32791U 08021J 16245.15112726 .00000592 00000-0 67028-4 0 9999 2 32791 97.5978 279.6066 0014496 39.5044 320.7228 14.89869019452105 RS-30 1 32953U 08025A 16245.82522811 .00000012 00000-0 16055-4 0 9998 2 32953 82.5002 58.9841 0018857 192.7761 167.2844 12.43071225375596 JUGNU 1 37839U 11058B 16244.81777605 .00000310 00000-0 23266-4 0 9990 2 37839 19.9622 45.0132 0018897 234.0308 264.8513 14.12550405252734 SRMSAT 1 37841U 11058D 16245.80823887 .00000314 00000-0 27205-4 0 9998 2 37841 19.9722 74.7630 0011907 153.5357 326.7114 14.10548881252518 AO-71 1 37854U 11061E 16245.68950382 .00003915 00000-0 22148-3 0 9993 2 37854 101.6999 326.9038 0172184 207.8848 151.3054 15.02542326263588 HRBE 1 37855U 11061F 16244.69729232 .00003592 00000-0 20004-3 0 9992 2 37855 101.7128 323.4261 0185724 215.6907 143.1770 15.01459207263321 HORYU-2 1 38340U 12025D 16245.21405419 .00000438 00000-0 73003-4 0 9994 2 38340 98.3609 233.2347 0012744 126.6139 233.6243 14.75097841230683 RS-40 1 38735U 12041C 16245.71647519 .00000032 00000-0 16345-3 0 9999 2 38735 82.4779 144.0666 0016232 300.1437 59.8033 12.42572751185866 BEESAT-3 1 39134U 13015E 16245.69634268 .00003223 00000-0 17509-3 0 9997 2 39134 64.8694 76.6275 0013165 305.4560 54.5335 15.16323435185711 BEESAT-2 1 39136U 13015G 16245.49369985 .00002310 00000-0 12651-3 0 9997 2 39136 64.8716 84.2214 0013239 305.5559 54.4844 15.13913795185554 ZACUBE-1 1 39417U 13066B 16245.18121987 .00000500 00000-0 70011-4 0 9993 2 39417 97.6728 294.7791 0060780 133.7763 226.8502 14.80463354150015 TRITON-1 1 39427U 13066M 16245.67479837 .00000364 00000-0 66718-4 0 9995 2 39427 97.6625 274.0764 0114402 191.8413 168.0099 14.67245674148733 GOMX-1 1 39430U 13066Q 16245.74206421 .00000219 00000-0 49416-4 0 9999 2 39430 97.6679 260.8599 0151014 233.6239 125.0945 14.58656940147886 LO-74 1 39440U 13066AA 16245.73003289 .00000480 00000-0 74481-4 0 9996 2 39440 97.6669 286.8554 0081803 154.7663 205.7578 14.75221380149567 SPROUT 1 39770U 14029E 16245.75060467 .00000757 00000-0 93762-4 0 9995 2 39770 97.8732 342.1303 0009322 184.5436 175.5731 14.85559429123307 EO-80 1 40032U 14033Y 16245.81297511 .00000619 00000-0 74111-4 0 9996 2 40032 97.9197 150.6247 0012334 160.2477 199.9219 14.87662099119562 VELOX-1 1 40057U 14034E 16245.76462561 .00000406 00000-0 65592-4 0 9994 2 40057 98.1934 335.7125 0009780 261.3691 98.6423 14.76794085117181 DAURIA DX 1 1 40071U 14037C 16245.76376860 .00000179 00000-0 30638-4 0 9999 2 40071 98.3315 339.6268 0007264 260.1776 99.8628 14.80859922116286 UKUBE-1 1 40074U 14037F 16245.71741119 .00000430 00000-0 59845-4 0 9991 2 40074 98.3374 342.0432 0003334 258.8146 101.2715 14.83162414116410 HODOYOSHI-1 1 40299U 14070B 16245.75568957 .00001123 00000-0 52891-4 0 9992 2 40299 97.4270 326.6266 0014507 29.8081 69.1533 15.21516617101072 CHUBUSAT-1 1 40300U 14070C 16245.72190214 .00001143 00000-0 55888-4 0 9990 2 40300 97.4222 324.6066 0022182 34.4038 117.0142 15.20044402100952 QSAT-EOS 1 40301U 14070D 16245.72850470 .00002573 00000-0 11608-3 0 9997 2 40301 97.4157 324.0484 0029859 32.4010 66.4078 15.21519606100942 FIREBIRD FU3 1 40377U 15003B 16245.79370122 .00007298 00000-0 32239-3 0 9997 2 40377 99.0931 7.2123 0141578 236.4875 122.3269 15.13027859 87360 FIREBIRD FU4 1 40378U 15003C 16245.78954566 .00005446 00000-0 24505-3 0 9997 2 40378 99.0939 7.2241 0142030 236.4672 122.2921 15.13040397 87365 GRIFEX 1 40379U 15003D 16245.61925200 .00004735 00000-0 22306-3 0 9990 2 40379 99.0944 5.9291 0146276 241.3836 117.2610 15.11164171 87279 NO-84 1 40654U 15025D 16244.53111198 .00003695 00000-0 86738-4 0 02136 2 40654 055.0005 085.3776 0199059 260.2998 097.5535 15.26956688035548 NO-83 1 40655U 15025E 16244.50819696 .00006820 00000-0 13727-3 0 02323 2 40655 054.9893 076.3682 0179023 264.5185 093.5442 15.32561480035645 DEORBITSAIL 1 40719U 15032E 16245.77910089 .00000869 00000-0 13450-3 0 9990 2 40719 98.0070 136.7041 0016818 356.1465 3.9611 14.75652054 61784 NUDT-PHONESAT 1 40900U 15049B 16245.80522964 .00004759 00000-0 24096-3 0 9995 2 40900 97.4453 252.2018 0016049 144.5872 215.6430 15.17363721 52697 XW-2D 1 40907U 15049J 16245.78609208 .00001680 00000-0 96296-4 0 9998 2 40907 97.4514 251.0747 0016358 127.2396 233.0331 15.13842792 52599 XW-2F 1 40910U 15049M 16245.79459463 .00002545 00000-0 14176-3 0 9996 2 40910 97.4537 251.3564 0017453 126.2404 234.0444 15.14384370 52493 XW-2B 1 40911U 15049N 16245.78650610 .00001639 00000-0 94096-4 0 9996 2 40911 97.4562 251.2935 0016241 127.4420 232.8292 15.13822514 52491 DCBB 1 40912U 15049P 16245.77844557 .00001733 00000-0 92459-4 0 9997 2 40912 97.4535 252.3368 0017689 120.9572 324.7178 15.16351508 52562 TW-1C 1 40926U 15051B 16245.70260046 .00007559 00000-0 20617-3 0 9991 2 40926 97.2689 281.8179 0015358 129.4102 11.3574 15.37613180 52510 TW-1A 1 40928U 15051D 16245.74970071 .00003112 00000-0 97296-4 0 9992 2 40928 97.2646 280.5799 0014874 146.3341 306.0457 15.33794058 52451 IO-86 1 40931U 15052B 16242.64054917 .00000642 00000-0 30847-6 0 9991 2 40931 5.9998 151.5500 0013712 78.4014 281.7652 14.76475153 49809 GomX-3 1 40949U 98067HA 16245.75338751 .00214281 28234-4 64562-3 0 9990 2 40949 51.6275 355.0458 0003279 329.7532 30.3285 15.91795445 52206 LQSat 1 40958U 15057A 16245.80615932 .00000051 00000-0 15770-4 0 9996 2 40958 98.0097 319.6735 0016966 270.0251 89.9003 14.72892276 48661 AO-85 1 40967U 15058D 16244.37814442 .00000719 00000-0 96912-4 0 02413 2 40967 064.7779 017.8264 0195021 181.3393 178.7213 14.75114746034367 ATHENOXAT-1 1 41168U 15077C 16245.71750134 .00002720 00000-0 12167-3 0 9997 2 41168 14.9891 114.9492 0012102 341.5359 62.1093 15.10277747 39341 ChubuSat-2 1 41338U 16012B 16244.94323741 .00000717 00000-0 50246-4 0 9995 2 41338 031.0028 148.9256 0013835 076.9023 283.3155 14.99463370029539 ChubuSat-3 1 41339U 16012C 16245.77805508 .00000521 00000-0 34369-4 0 9995 2 41339 31.0099 143.2581 0013394 92.0010 268.2189 14.99689709 29638 Horyu-4 1 41340U 16012D 16245.79407783 .00001233 00000-0 89634-4 0 9998 2 41340 31.0047 142.3461 0014137 97.1636 263.0607 15.00147739 29662 OUFTI-1 1 41458U 16025C 16244.93321674 .00003038 00000-0 17211-3 0 9997 2 41458 098.2035 259.7455 0177732 174.8500 185.4606 15.01433446019157 e-st@r-II 1 41459U 16025D 16245.73392507 .00003150 00000-0 17838-3 0 9990 2 41459 98.2035 260.5863 0177837 172.2238 188.1811 15.01399860 19268 AAUSAT4 1 41460U 16025E 16245.71828237 .00003193 00000-0 18071-3 0 9991 2 41460 98.2105 260.6116 0175152 171.5550 188.8698 15.01750723 19266 MinXSS 1 41474U 98067HU 16245.78819342 .00045194 00000-0 53643-3 0 9997 2 41474 51.6426 33.2025 0001570 69.1960 290.9202 15.60723240 16882 CADRE 1 41475U 98067HV 16245.82758830 .00087354 00000-0 91161-3 0 9998 2 41475 51.6399 31.9513 0000042 210.7905 149.3087 15.63761694 16904 NODES 1 1 41477U 98067HX 16245.77199753 .00034988 00000-0 44009-3 0 9991 2 41477 51.6404 33.8338 0001439 52.9740 307.1384 15.59318977 16780 NODES 2 1 41478U 98067HY 16245.77459533 .00034942 00000-0 44048-3 0 9990 2 41478 51.6401 33.8500 0001363 53.7463 306.3655 15.59261200 16784 NuSat1-LUSEX 1 41557U 16033B 16245.85397326 .00002061 00000-0 83740-4 0 9991 2 41557 97.4932 319.1457 0013713 308.4773 143.9311 15.25656602 14448 NuSat2 1 41558U 16033C 16245.80510205 .00002044 00000-0 83440-4 0 9998 2 41558 97.4955 319.1048 0012984 307.0711 189.3144 15.25515658 14438 Lapan A3 1 41603U 16040E 16245.82228735 .00000418 00000-0 23187-4 0 9998 2 41603 97.5049 304.5404 0014075 6.6418 84.9975 15.19104629 10878 Swayam 1 41607U 16040J 16245.80612384 .00003734 00000-0 17999-3 0 9994 2 41607 97.5023 304.4996 0015002 9.8554 350.2972 15.19249766 10795 /EX
